| time (UTC) | temp C | wind direction | speed KPH | gust KPH | rain 1hr cm | rain 24hr cm | rain mn cm | humidity % | barometer mb |
| 20260506221006 | 2 | 258 | 0.0 | 0.0 | 0.00 | 23.47 | 0.00 | 67 | 1008.7 |
| 20260506220508 | 3 | 258 | 0.0 | 0.0 | 0.00 | 23.67 | 0.00 | 67 | 1008.7 |
| 20260506215505 | 3 | 259 | 0.0 | 0.0 | 0.00 | 24.08 | 0.00 | 66 | 1008.6 |
| 20260506215007 | 3 | 256 | 0.0 | 0.0 | 0.00 | 24.28 | 0.00 | 65 | 1008.5 |
| 20260506214006 | 3 | 255 | 0.0 | 0.0 | 0.00 | 24.89 | 0.00 | 64 | 1008.4 |
| 20260506213506 | 3 | 258 | 0.0 | 0.0 | 0.00 | 25.20 | 0.00 | 64 | 1008.3 |
| 20260506213008 | 3 | 260 | 0.0 | 1.6 | 0.00 | 2.54 | 0.00 | 64 | 1008.2 |
| 20260506212506 | 3 | 260 | 0.0 | 1.6 | 0.00 | 2.57 | 0.00 | 64 | 1008.2 |
| 20260506212006 | 4 | 256 | 0.0 | 0.0 | 0.00 | 2.59 | 0.00 | 63 | 1008.1 |
| 20260506211506 | 4 | 262 | 0.0 | 0.0 | 0.00 | 2.62 | 0.00 | 62 | 1008.0 |
| 20260506210506 | 4 | 258 | 0.0 | 0.0 | 0.00 | 2.69 | 0.00 | 60 | 1008.0 |
| 20260506210007 | 5 | 259 | 0.0 | 0.0 | 0.00 | 2.72 | 0.00 | 60 | 1007.9 |
| 20260506205506 | 5 | 260 | 0.0 | 0.0 | 0.00 | 2.74 | 0.00 | 59 | 1007.9 |
| 20260506205007 | 5 | 260 | 0.0 | 0.0 | 0.00 | 2.77 | 0.00 | 58 | 1008.0 |
| 20260506204006 | 5 | 257 | 0.0 | 3.2 | 0.00 | 2.84 | 0.00 | 58 | 1007.8 |
| 20260506203009 | 6 | 259 | 0.0 | 0.0 | 0.00 | 2.90 | 0.00 | 56 | 1007.8 |
| 20260506202005 | 6 | 263 | 0.0 | 0.0 | 0.00 | 2.92 | 23.77 | 55 | 1007.8 |
| 20260506201505 | 6 | 260 | 0.0 | 0.0 | 0.00 | 2.95 | 23.77 | 54 | 1007.8 |
| 20260506201006 | 6 | 258 | 0.0 | 0.0 | 0.00 | 2.97 | 23.77 | 53 | 1007.8 |
| 20260506200505 | 7 | 261 | 0.0 | 0.0 | 0.00 | 3.00 | 23.77 | 53 | 1007.8 |
| 20260506200006 | 7 | 258 | 0.0 | 1.6 | 0.05 | 3.02 | 23.77 | 53 | 1007.8 |
| 20260506195504 | 7 | 258 | 0.0 | 1.6 | 0.15 | 3.07 | 23.77 | 53 | 1007.8 |
| 20260506195005 | 7 | 257 | 0.0 | 0.0 | 0.20 | 3.07 | 23.77 | 52 | 1007.8 |
| 20260506194506 | 7 | 258 | 0.0 | 0.0 | 0.36 | 3.12 | 23.77 | 51 | 1007.8 |
| 20260506194004 | 7 | 260 | 0.0 | 0.0 | 0.36 | 3.15 | 23.77 | 51 | 1007.7 |
| 20260506193006 | 8 | 259 | 0.0 | 0.0 | 0.51 | 3.25 | 23.77 | 49 | 1007.6 |
| 20260506192504 | 8 | 257 | 0.0 | 0.0 | 0.51 | 3.28 | 23.77 | 49 | 1007.6 |
| 20260506191505 | 8 | 256 | 0.0 | 1.6 | 0.51 | 3.35 | 23.77 | 49 | 1007.6 |
| 20260506191004 | 9 | 258 | 0.0 | 0.0 | 0.51 | 3.38 | 23.77 | 48 | 1007.7 |
| 20260506185504 | -21 | 263 | 0.0 | 3.2 | 0.36 | 3.45 | 23.62 | 44 | 1007.6 |
| 20260506185004 | 10 | 254 | 0.0 | 3.2 | 0.30 | 3.48 | 23.57 | 44 | 1007.5 |
| 20260506184505 | -9 | 347 | 0.0 | 0.0 | 0.15 | 3.48 | 23.42 | 43 | 1007.5 |
| 20260506184005 | -21 | 0 | 0.0 | 0.0 | 0.15 | 3.51 | 23.42 | 85 | 1007.4 |
| 20260506183504 | -21 | 0 | 0.0 | 0.0 | 0.15 | 3.56 | 23.42 | 85 | 1007.3 |
| 20260506183005 | -1 | 0 | 0.0 | 0.0 | 0.00 | 3.56 | 23.27 | 85 | 1007.3 |
| 20260506182005 | -1 | 0 | 0.0 | 0.0 | 0.00 | 3.63 | 23.27 | 85 | 1007.2 |
| 20260506181005 | -1 | 0 | 0.0 | 0.0 | 0.00 | 3.68 | 23.27 | 85 | 1007.1 |
| 20260506180006 | -1 | 0 | 0.0 | 0.0 | 0.00 | 3.73 | 23.27 | 85 | 1007.1 |
| 20260506175505 | -1 | 0 | 0.0 | 0.0 | 0.00 | 3.76 | 23.27 | 85 | 1007.1 |
| 20260506175005 | -1 | 0 | 0.0 | 0.0 | 0.00 | 3.81 | 23.27 | 85 | 1007.0 |
| 20260506174506 | -1 | 0 | 0.0 | 0.0 | 0.00 | 3.84 | 23.27 | 85 | 1007.0 |
| 20260506174004 | -1 | 0 | 0.0 | 0.0 | 0.00 | 3.86 | 23.27 | 85 | 1007.0 |
| 20260506173504 | -1 | 0 | 0.0 | 0.0 | 0.00 | 3.89 | 23.27 | 85 | 1006.9 |
| 20260506173005 | -1 | 0 | 0.0 | 0.0 | 0.00 | 3.91 | 23.27 | 85 | 1007.0 |
| 20260506172504 | -1 | 0 | 0.0 | 0.0 | 0.00 | 3.94 | 23.27 | 85 | 1007.0 |
| 20260506172004 | -1 | 0 | 0.0 | 0.0 | 0.00 | 3.99 | 23.27 | 85 | 1007.0 |
| 20260506171505 | -1 | 0 | 0.0 | 0.0 | 0.00 | 4.01 | 23.27 | 85 | 1007.0 |
| 20260506171005 | -1 | 0 | 0.0 | 0.0 | 0.00 | 4.04 | 23.27 | 85 | 1007.0 |
| 20260506165505 | -1 | 0 | 0.0 | 0.0 | 0.00 | 4.11 | 23.27 | 85 | 1007.1 |
| 20260506164505 | -1 | 0 | 0.0 | 0.0 | 0.00 | 4.19 | 23.27 | 85 | 1007.1 |
| 20260506164004 | -1 | 0 | 0.0 | 0.0 | 0.00 | 4.22 | 23.27 | 85 | 1007.1 |
| 20260506163504 | -1 | 0 | 0.0 | 0.0 | 0.00 | 4.24 | 23.27 | 85 | 1007.1 |
| 20260506163006 | -1 | 0 | 0.0 | 0.0 | 0.00 | 4.27 | 23.27 | 85 | 1007.1 |
| 20260506162505 | -1 | 0 | 0.0 | 0.0 | 0.00 | 4.29 | 23.27 | 85 | 1007.0 |
| 20260506161505 | -1 | 0 | 0.0 | 0.0 | 0.00 | 4.37 | 23.27 | 85 | 1006.9 |
| 20260506161004 | -1 | 0 | 0.0 | 0.0 | 0.00 | 4.39 | 23.27 | 85 | 1007.0 |
| 20260506160006 | -1 | 0 | 0.0 | 0.0 | 0.00 | 4.45 | 23.27 | 85 | 1007.0 |
| 20260506155504 | -1 | 0 | 0.0 | 0.0 | 0.00 | 4.47 | 23.27 | 85 | 1007.0 |
| 20260506155005 | -1 | 0 | 0.0 | 0.0 | 0.00 | 4.52 | 23.27 | 85 | 1007.0 |
| 20260506154505 | -1 | 0 | 0.0 | 0.0 | 0.00 | 4.55 | 23.27 | 85 | 1007.1 |
| 20260506154005 | -1 | 0 | 0.0 | 0.0 | 0.00 | 4.57 | 23.27 | 85 | 1007.1 |
| 20260506153504 | -1 | 0 | 0.0 | 0.0 | 0.00 | 4.60 | 23.27 | 85 | 1007.2 |
| 20260506153006 | -1 | 0 | 0.0 | 0.0 | 0.00 | 4.62 | 23.27 | 85 | 1007.2 |
| 20260506152504 | -1 | 0 | 0.0 | 0.0 | 0.00 | 4.67 | 23.27 | 85 | 1007.1 |
| 20260506152004 | -1 | 0 | 0.0 | 0.0 | 0.00 | 4.70 | 23.27 | 85 | 1007.1 |
| 20260506151506 | -1 | 0 | 0.0 | 0.0 | 0.00 | 4.72 | 23.27 | 85 | 1007.1 |
| 20260506151004 | -1 | 0 | 0.0 | 0.0 | 0.00 | 4.75 | 23.27 | 85 | 1007.1 |
| 20260506150505 | -1 | 0 | 0.0 | 0.0 | 0.00 | 4.78 | 23.27 | 85 | 1007.1 |
| 20260506150006 | -1 | 0 | 0.0 | 0.0 | 0.00 | 4.80 | 23.27 | 85 | 1007.1 |
| 20260506145504 | -1 | 0 | 0.0 | 0.0 | 0.00 | 4.85 | 23.27 | 85 | 1007.2 |
| 20260506145005 | -1 | 0 | 0.0 | 0.0 | 0.00 | 4.88 | 23.27 | 85 | 1007.4 |
| 20260506144505 | -1 | 0 | 0.0 | 0.0 | 0.00 | 4.90 | 23.27 | 85 | 1007.4 |
| 20260506144005 | -1 | 0 | 0.0 | 0.0 | 0.00 | 4.93 | 23.27 | 85 | 1007.4 |
| 20260506143505 | -1 | 0 | 0.0 | 0.0 | 0.00 | 4.95 | 23.27 | 85 | 1007.3 |
| 20260506143006 | -1 | 0 | 0.0 | 0.0 | 0.00 | 4.98 | 23.27 | 85 | 1007.3 |
| 20260506142504 | -1 | 0 | 0.0 | 0.0 | 0.00 | 5.03 | 23.27 | 85 | 1007.4 |
| 20260506142004 | -1 | 0 | 0.0 | 0.0 | 0.00 | 5.05 | 23.27 | 85 | 1007.2 |
| 20260506141505 | -1 | 0 | 0.0 | 0.0 | 0.00 | 5.08 | 23.27 | 85 | 1007.3 |
| 20260506141005 | -1 | 0 | 0.0 | 0.0 | 0.00 | 5.11 | 23.27 | 85 | 1007.3 |
| 20260506140504 | -1 | 0 | 0.0 | 0.0 | 0.00 | 5.13 | 23.27 | 85 | 1007.3 |
| 20260506140005 | -1 | 0 | 0.0 | 0.0 | 0.00 | 5.16 | 23.27 | 85 | 1007.4 |
| 20260506135505 | -1 | 0 | 0.0 | 0.0 | 0.00 | 5.21 | 23.27 | 85 | 1007.3 |
| 20260506135005 | -1 | 0 | 0.0 | 0.0 | 0.00 | 5.23 | 23.27 | 85 | 1007.3 |
| 20260506134504 | -1 | 0 | 0.0 | 0.0 | 0.00 | 5.26 | 23.27 | 85 | 1007.3 |
| 20260506134006 | -1 | 0 | 0.0 | 0.0 | 0.00 | 5.28 | 23.27 | 85 | 1007.3 |
| 20260506133504 | -1 | 0 | 0.0 | 0.0 | 0.00 | 5.31 | 23.27 | 85 | 1007.3 |
| 20260506133005 | -1 | 0 | 0.0 | 0.0 | 0.00 | 5.33 | 23.27 | 85 | 1007.4 |
| 20260506132504 | -1 | 0 | 0.0 | 0.0 | 0.00 | 5.38 | 23.27 | 85 | 1007.4 |
| 20260506132005 | -1 | 0 | 0.0 | 0.0 | 0.00 | 5.41 | 23.27 | 85 | 1007.4 |
| 20260506131505 | -1 | 0 | 0.0 | 0.0 | 0.00 | 5.44 | 23.27 | 85 | 1007.4 |
| 20260506131005 | -1 | 0 | 0.0 | 0.0 | 0.00 | 5.46 | 23.27 | 85 | 1007.4 |
| 20260506130505 | -1 | 0 | 0.0 | 0.0 | 0.00 | 5.49 | 23.27 | 85 | 1007.5 |
| 20260506130005 | -1 | 0 | 0.0 | 0.0 | 0.00 | 5.51 | 23.27 | 85 | 1007.5 |
| 20260506125505 | -1 | 0 | 0.0 | 0.0 | 0.00 | 5.56 | 23.27 | 85 | 1007.5 |
| 20260506125005 | -1 | 0 | 0.0 | 0.0 | 0.00 | 5.59 | 23.27 | 85 | 1007.6 |
| 20260506124504 | -1 | 0 | 0.0 | 0.0 | 0.00 | 5.61 | 23.27 | 85 | 1007.5 |
| 20260506124004 | -1 | 0 | 0.0 | 0.0 | 0.00 | 5.64 | 23.27 | 85 | 1007.5 |
| 20260506123505 | -1 | 0 | 0.0 | 0.0 | 0.00 | 5.66 | 23.27 | 85 | 1007.5 |
| 20260506123005 | -1 | 0 | 0.0 | 0.0 | 0.00 | 5.69 | 23.27 | 85 | 1007.5 |
| 20260506122505 | -1 | 0 | 0.0 | 0.0 | 0.00 | 5.74 | 23.27 | 85 | 1007.6 |
| 20260506122005 | -1 | 0 | 0.0 | 0.0 | 0.00 | 5.77 | 23.27 | 85 | 1007.7 |
| 20260506121504 | -1 | 0 | 0.0 | 0.0 | 0.00 | 5.79 | 23.27 | 85 | 1007.6 |
| 20260506120504 | -1 | 0 | 0.0 | 0.0 | 0.00 | 5.84 | 23.27 | 85 | 1007.5 |
| 20260506120005 | -1 | 0 | 0.0 | 0.0 | 0.00 | 5.87 | 23.27 | 85 | 1007.6 |
| 20260506115505 | -1 | 0 | 0.0 | 0.0 | 0.00 | 5.92 | 23.27 | 85 | 1007.6 |
| 20260506115005 | -1 | 0 | 0.0 | 0.0 | 0.00 | 5.94 | 23.27 | 85 | 1007.7 |
| 20260506114504 | -1 | 0 | 0.0 | 0.0 | 0.00 | 5.97 | 23.27 | 85 | 1007.7 |
| 20260506114006 | -1 | 0 | 0.0 | 0.0 | 0.00 | 5.99 | 23.27 | 85 | 1007.7 |
| 20260506113505 | -1 | 0 | 0.0 | 0.0 | 0.00 | 6.02 | 23.27 | 85 | 1007.9 |
| 20260506113005 | -1 | 0 | 0.0 | 0.0 | 0.00 | 6.07 | 23.27 | 85 | 1007.9 |
| 20260506112505 | -1 | 0 | 0.0 | 0.0 | 0.00 | 6.10 | 23.27 | 85 | 1007.8 |
| 20260506112005 | -1 | 0 | 0.0 | 0.0 | 0.00 | 6.12 | 23.27 | 85 | 1007.8 |
| 20260506111006 | -1 | 0 | 0.0 | 0.0 | 0.00 | 6.17 | 23.27 | 85 | 1007.9 |
| 20260506110504 | -1 | 0 | 0.0 | 0.0 | 0.00 | 6.20 | 23.27 | 85 | 1008.0 |
| 20260506110005 | -1 | 0 | 0.0 | 0.0 | 0.00 | 6.25 | 23.27 | 85 | 1007.9 |
| 20260506105504 | -1 | 0 | 0.0 | 0.0 | 0.00 | 6.27 | 23.27 | 85 | 1007.9 |
| 20260506105004 | -1 | 0 | 0.0 | 0.0 | 0.00 | 6.30 | 23.27 | 85 | 1007.9 |
| 20260506104006 | -1 | 0 | 0.0 | 0.0 | 0.00 | 6.35 | 23.27 | 85 | 1008.0 |
| 20260506103505 | -1 | 0 | 0.0 | 0.0 | 0.00 | 6.38 | 23.27 | 85 | 1008.0 |
| 20260506103005 | -1 | 0 | 0.0 | 0.0 | 0.00 | 6.43 | 23.27 | 85 | 1008.0 |
| 20260506102505 | -1 | 0 | 0.0 | 0.0 | 0.00 | 6.45 | 23.27 | 85 | 1008.0 |
| 20260506102004 | -1 | 0 | 0.0 | 0.0 | 0.00 | 6.48 | 23.27 | 85 | 1008.0 |
| 20260506101504 | -1 | 0 | 0.0 | 0.0 | 0.00 | 6.50 | 23.27 | 85 | 1008.0 |
| 20260506101004 | -1 | 0 | 0.0 | 0.0 | 0.00 | 6.53 | 23.27 | 85 | 1008.1 |
| 20260506100504 | -1 | 0 | 0.0 | 0.0 | 0.00 | 6.55 | 23.27 | 85 | 1008.2 |
| 20260506100005 | -1 | 0 | 0.0 | 0.0 | 0.00 | 6.60 | 23.27 | 85 | 1008.2 |
| 20260506095505 | -1 | 0 | 0.0 | 0.0 | 0.00 | 6.63 | 23.27 | 85 | 1008.2 |
| 20260506094506 | -1 | 0 | 0.0 | 0.0 | 0.00 | 6.68 | 23.27 | 85 | 1008.2 |
| 20260506094005 | -1 | 0 | 0.0 | 0.0 | 0.00 | 6.71 | 23.27 | 85 | 1008.2 |
| 20260506093504 | -1 | 0 | 0.0 | 0.0 | 0.00 | 6.73 | 23.27 | 85 | 1008.2 |
| 20260506093005 | -1 | 0 | 0.0 | 0.0 | 0.00 | 6.78 | 23.27 | 85 | 1008.2 |
| 20260506092505 | -1 | 0 | 0.0 | 0.0 | 0.00 | 6.81 | 23.27 | 85 | 1008.2 |
| 20260506092004 | -1 | 0 | 0.0 | 0.0 | 0.00 | 6.83 | 23.27 | 85 | 1008.3 |
| 20260506091504 | -1 | 0 | 0.0 | 0.0 | 0.00 | 6.86 | 23.27 | 85 | 1008.4 |
| 20260506091006 | -1 | 0 | 0.0 | 0.0 | 0.00 | 6.88 | 23.27 | 85 | 1008.3 |
| 20260506090504 | -1 | 0 | 0.0 | 0.0 | 0.00 | 6.91 | 23.27 | 85 | 1008.4 |
| 20260506090004 | -1 | 0 | 0.0 | 0.0 | 0.00 | 6.96 | 23.27 | 85 | 1008.4 |
| 20260506085504 | -1 | 0 | 0.0 | 0.0 | 0.00 | 6.99 | 23.27 | 85 | 1008.4 |
| 20260506085004 | -1 | 0 | 0.0 | 0.0 | 0.00 | 7.01 | 23.27 | 85 | 1008.5 |
| 20260506084504 | -1 | 0 | 0.0 | 0.0 | 0.00 | 7.04 | 23.27 | 85 | 1008.5 |
| 20260506084006 | -1 | 0 | 0.0 | 0.0 | 0.00 | 7.06 | 23.27 | 85 | 1008.5 |
| 20260506083504 | -1 | 0 | 0.0 | 0.0 | 0.00 | 7.09 | 23.27 | 85 | 1008.5 |
| 20260506083004 | -1 | 0 | 0.0 | 0.0 | 0.00 | 7.14 | 23.27 | 85 | 1008.5 |
| 20260506082505 | -1 | 0 | 0.0 | 0.0 | 0.00 | 7.16 | 23.27 | 85 | 1008.6 |
| 20260506082005 | -1 | 0 | 0.0 | 0.0 | 0.00 | 7.19 | 23.27 | 85 | 1008.6 |
| 20260506081505 | -1 | 0 | 0.0 | 0.0 | 0.00 | 7.21 | 23.27 | 85 | 1008.6 |
| 20260506081005 | -1 | 0 | 0.0 | 0.0 | 0.00 | 7.24 | 23.27 | 85 | 1008.7 |